N434AB KMSO-KMSO

Flight info

Callsign N434AB
Flight time N/A
Altitude 5000
Route PATTERN AT KHRF THEN BACK TO KMSO
Aircraft BE17/L-S/L

Departure

Time 2026-05-06 20:29
Airport Missoula Montana Airport (KMSO)

Arrival

Time N/A
Airport Missoula Montana Airport (KMSO)
Time Latitude Longitude Altitude Speed Heading
2026-05-06 20:21 46.91467 -114.07930 3202 ft 0 kts 89°
2026-05-06 20:24 46.91470 -114.07917 3202 ft 2 kts 44°
2026-05-06 20:24 46.91502 -114.07909 3202 ft 9 kts
2026-05-06 20:24 46.91533 -114.07941 3202 ft 7 kts 269°
2026-05-06 20:24 46.91532 -114.08026 3202 ft 9 kts 269°
2026-05-06 20:25 46.91531 -114.08128 3201 ft 11 kts 269°
2026-05-06 20:25 46.91497 -114.08221 3201 ft 11 kts 220°
2026-05-06 20:25 46.91433 -114.08298 3201 ft 12 kts 219°
2026-05-06 20:25 46.91366 -114.08379 3200 ft 13 kts 219°
2026-05-06 20:26 46.91322 -114.08434 3200 ft 0 kts 221°
2026-05-06 20:27 46.91309 -114.08450 3200 ft 10 kts 221°
2026-05-06 20:28 46.91262 -114.08566 3198 ft 15 kts 296°
2026-05-06 20:28 46.91351 -114.08718 3198 ft 34 kts 309°
2026-05-06 20:28 46.91623 -114.09184 3199 ft 88 kts 311°
2026-05-06 20:28 46.92061 -114.09905 3458 ft 96 kts 310°
2026-05-06 20:29 46.92489 -114.10644 3955 ft 98 kts 308°
2026-05-06 20:29 46.92953 -114.11497 4298 ft 114 kts 301°
2026-05-06 20:29 46.93170 -114.12675 4655 ft 127 kts 269°
2026-05-06 20:29 46.92771 -114.13852 4982 ft 140 kts 225°
2026-05-06 20:30 46.91852 -114.14445 5238 ft 148 kts 200°
2026-05-06 20:30 46.89885 -114.15242 6023 ft 146 kts 199°
2026-05-06 20:30 46.88969 -114.15409 6520 ft 128 kts 193°
2026-05-06 20:31 46.88081 -114.15442 6800 ft 129 kts 190°
2026-05-06 20:31 46.87186 -114.15483 7005 ft 129 kts 190°
2026-05-06 20:31 46.86264 -114.15633 7143 ft 137 kts 203°
2026-05-06 20:31 46.85347 -114.15979 7384 ft 128 kts 205°
2026-05-06 20:32 46.84497 -114.16146 7862 ft 122 kts 195°
2026-05-06 20:32 46.83636 -114.16210 8241 ft 128 kts 193°
2026-05-06 20:32 46.82742 -114.16180 8625 ft 129 kts 186°
2026-05-06 20:32 46.81791 -114.16030 8689 ft 152 kts 184°
2026-05-06 20:33 46.80732 -114.15655 8768 ft 159 kts 160°
2026-05-06 20:33 46.79795 -114.14941 8821 ft 145 kts 157°
2026-05-06 20:33 46.78914 -114.14235 8759 ft 149 kts 154°
2026-05-06 20:33 46.77990 -114.13466 8599 ft 152 kts 163°
2026-05-06 20:34 46.76989 -114.12840 8365 ft 160 kts 175°
2026-05-06 20:34 46.75990 -114.12143 8065 ft 158 kts 162°
2026-05-06 20:34 46.75064 -114.11330 7866 ft 160 kts 143°
2026-05-06 20:34 46.74223 -114.10303 7740 ft 156 kts 142°
2026-05-06 20:35 46.73454 -114.09145 7468 ft 163 kts 132°
2026-05-06 20:35 46.72766 -114.07826 7287 ft 162 kts 128°
2026-05-06 20:35 46.72163 -114.06453 7136 ft 160 kts 124°
2026-05-06 20:35 46.71508 -114.05144 6884 ft 161 kts 133°
2026-05-06 20:36 46.70766 -114.03946 6702 ft 159 kts 131°
2026-05-06 20:36 46.70045 -114.02779 6592 ft 152 kts 145°
2026-05-06 20:36 46.69168 -114.01995 6414 ft 149 kts 162°
2026-05-06 20:36 46.68197 -114.01592 6276 ft 140 kts 175°
2026-05-06 20:37 46.67253 -114.01372 6137 ft 137 kts 180°
2026-05-06 20:37 46.66334 -114.01160 6085 ft 130 kts 179°
2026-05-06 20:37 46.65445 -114.00933 5950 ft 129 kts 176°
2026-05-06 20:37 46.64550 -114.00798 5780 ft 130 kts 183°
2026-05-06 20:38 46.63640 -114.00683 5639 ft 128 kts 182°
2026-05-06 20:38 46.62747 -114.00579 5547 ft 127 kts 190°
2026-05-06 20:38 46.61967 -114.01041 5347 ft 122 kts 230°
2026-05-06 20:38 46.61698 -114.02131 5005 ft 117 kts 281°
2026-05-06 20:39 46.62061 -114.03123 4976 ft 108 kts 313°
2026-05-06 20:39 46.62489 -114.03936 5045 ft 101 kts 284°
2026-05-06 20:39 46.62238 -114.04950 4906 ft 120 kts 239°
2026-05-06 20:39 46.61629 -114.05739 4927 ft 120 kts 213°
2026-05-06 20:40 46.60800 -114.06027 4850 ft 131 kts 175°
2026-05-06 20:40 46.59988 -114.05439 4861 ft 130 kts 152°
2026-05-06 20:40 46.59240 -114.04631 4953 ft 133 kts 148°
2026-05-06 20:40 46.58560 -114.03797 5034 ft 120 kts 132°
2026-05-06 20:41 46.57855 -114.03170 4948 ft 125 kts 171°
2026-05-06 20:41 46.56984 -114.03004 4889 ft 121 kts 181°
2026-05-06 20:41 46.56200 -114.02959 4913 ft 105 kts 194°
2026-05-06 20:41 46.55423 -114.03116 4780 ft 115 kts 196°
2026-05-06 20:42 46.54643 -114.03379 4782 ft 114 kts 202°
2026-05-06 20:42 46.53903 -114.03756 4833 ft 109 kts 212°
2026-05-06 20:42 46.53224 -114.04258 4852 ft 110 kts 213°
2026-05-06 20:42 46.52579 -114.04844 4840 ft 108 kts 219°
2026-05-06 20:43 46.51850 -114.05276 4795 ft 121 kts 193°
2026-05-06 20:43 46.51031 -114.05262 4901 ft 114 kts 183°
2026-05-06 20:43 46.50203 -114.05283 5049 ft 132 kts 189°
2026-05-06 20:43 46.49263 -114.05323 5203 ft 140 kts 192°
2026-05-06 20:44 46.48239 -114.05472 5158 ft 155 kts 193°
2026-05-06 20:44 46.47151 -114.05614 5266 ft 159 kts 184°
2026-05-06 20:44 46.46034 -114.05662 5332 ft 162 kts 187°
2026-05-06 20:44 46.44948 -114.05860 5601 ft 154 kts 194°
2026-05-06 20:45 46.43860 -114.06031 5717 ft 159 kts 192°
2026-05-06 20:45 46.42774 -114.06186 5961 ft 155 kts 193°
2026-05-06 20:45 46.41690 -114.06353 6010 ft 159 kts 193°
2026-05-06 20:45 46.40575 -114.06550 6041 ft 162 kts 194°
2026-05-06 20:46 46.39451 -114.06815 6068 ft 165 kts 198°
2026-05-06 20:46 46.38314 -114.07085 6094 ft 166 kts 195°
2026-05-06 20:46 46.37154 -114.07275 6013 ft 170 kts 191°
2026-05-06 20:46 46.36002 -114.07446 6116 ft 165 kts 195°
2026-05-06 20:47 46.34831 -114.07666 6172 ft 170 kts 195°
2026-05-06 20:47 46.33667 -114.07912 6228 ft 169 kts 195°
2026-05-06 20:47 46.32501 -114.08051 6352 ft 169 kts 191°
2026-05-06 20:47 46.31312 -114.08073 6383 ft 169 kts 188°
2026-05-06 20:48 46.30144 -114.08088 6530 ft 165 kts 192°
2026-05-06 20:48 46.29046 -114.08318 6801 ft 157 kts 199°
2026-05-06 20:48 46.27878 -114.08315 6627 ft 185 kts 175°
2026-05-06 20:48 46.26615 -114.08201 6710 ft 172 kts 192°
2026-05-06 20:49 46.25455 -114.08316 6940 ft 156 kts 194°
2026-05-06 20:49 46.24458 -114.08278 6668 ft 138 kts 181°
2026-05-06 20:49 46.23553 -114.08130 6332 ft 123 kts 185°
2026-05-06 20:49 46.22743 -114.08226 6024 ft 119 kts 205°
2026-05-06 20:50 46.22165 -114.08960 5675 ft 106 kts 248°
2026-05-06 20:50 46.21878 -114.09920 5319 ft 101 kts 268°
2026-05-06 20:50 46.21863 -114.10881 4880 ft 92 kts 291°
2026-05-06 20:50 46.22144 -114.11535 4668 ft 70 kts 319°
2026-05-06 20:51 46.22515 -114.11953 4444 ft 65 kts 328°
2026-05-06 20:51 46.22951 -114.12218 4250 ft 71 kts 335°
2026-05-06 20:51 46.23459 -114.12405 4043 ft 73 kts 341°
2026-05-06 20:51 46.23885 -114.12504 3847 ft 55 kts 335°
2026-05-06 20:52 46.24277 -114.12565 3716 ft 60 kts 349°
2026-05-06 20:52 46.24689 -114.12561 3642 ft 51 kts 356°
2026-05-06 20:52 46.25024 -114.12562 3726 ft 54 kts 351°
2026-05-06 20:52 46.25469 -114.12560 3965 ft 70 kts 347°
2026-05-06 20:53 46.25899 -114.12552 3878 ft 54 kts 349°
2026-05-06 20:53 46.26238 -114.12492 3632 ft 23 kts 276°